Weather History for LTDA - February, 2014

Change the Weather History Date:

Sunday, February 23, 2014

  Actual Average Record
Temperature  
Mean Temperature 57 °F -  
Max Temperature 73 °F - - ()
Min Temperature 41 °F - - ()
Degree Days  
Heating Degree Days 8    
Growing Degree Days 7 (Base 50)    
Moisture  
Dew Point 44 °F    
Average Humidity 64    
Maximum Humidity 88    
Minimum Humidity 27    
Precipitation  
Precipitation 0.00 in - - ()
Sea Level Pressure  
Sea Level Pressure 29.99 in    
Wind  
Wind Speed 6 mph ()    
Max Wind Speed 16 mph    
Max Gust Speed -    
Visibility 4.3 miles    
Events      
T = Trace of Precipitation, MM = Missing Value Source: Averaged Metar Reports

Daily Weather History Graph

Daily Weather History Graph

Search for Another Location

Airport or City:

Trip Planner

Search our weather history database for the weather conditions in past years. The results will help you decide how hot, cold, wet, or windy it might be!

Date:

Astronomy

Feb. 23, 2014 Rise Set
Actual Time 6:13 AM EET 5:23 PM EET
Civil Twilight 5:47 AM EET 5:49 PM EET
Nautical Twilight 5:17 AM EET 6:19 PM EET
Astronomical Twilight 4:47 AM EET 6:49 PM EET
Moon 12:45 AM EET (2/23) 11:12 AM EET (2/23)
Length of Visible Light 12h 02m
Length of Day
11h 10m
Last Quarter, 42% of the Moon is Illuminated
Feb 23
Last Quarter
Mar 1
New
Mar 8
First Quarter
Mar 16
Full
Mar 24
Last Quarter

Hourly Weather History & Observations

Time (EET) Temp. Windchill Dew Point Humidity Pressure Visibility Wind Dir Wind Speed Gust Speed Precip Events Conditions
12:50 AM 53.6 °F - 37.4 °F 54% 29.92 in - NE 5.8 mph - N/A   Clear
1:50 AM 51.8 °F - 37.4 °F 58% 29.92 in - NNE 8.1 mph - N/A   Clear
2:50 AM 51.8 °F - 37.4 °F 58% 29.92 in - SW 4.6 mph - N/A   Clear
3:50 AM 48.2 °F - 37.4 °F 66% 29.92 in 6.2 mi WNW 6.9 mph - N/A   Partly Cloudy
4:50 AM 41.0 °F 37.1 °F 33.8 °F 76% 29.95 in 6.2 mi ESE 5.8 mph - N/A   Partly Cloudy
5:50 AM 41.0 °F 39.0 °F 35.6 °F 81% 29.98 in 6.2 mi NNW 3.5 mph - N/A   Partly Cloudy
6:50 AM 42.8 °F - 35.6 °F 76% 30.01 in - Variable 1.2 mph - N/A   Clear
7:50 AM 50.0 °F - 39.2 °F 66% 30.04 in - ENE 3.5 mph - N/A   Clear
8:50 AM 57.2 °F - 37.4 °F 48% 30.04 in - Variable 2.3 mph - N/A   Clear
9:50 AM 60.8 °F - 39.2 °F 45% 30.04 in - Variable 1.2 mph - N/A   Clear
10:50 AM 66.2 °F - 39.2 °F 37% 30.01 in - Variable 2.3 mph - N/A   Clear
11:50 AM 69.8 °F - 37.4 °F 31% 30.01 in - Variable 3.5 mph - N/A   Clear
12:50 PM 71.6 °F - 35.6 °F 27% 29.98 in - NE 5.8 mph - N/A   Clear
1:50 PM 73.4 °F - 46.4 °F 38% 29.95 in - WNW 5.8 mph - N/A   Clear
2:50 PM 73.4 °F - 48.2 °F 41% 29.95 in - NNW 11.5 mph - N/A   Clear
3:50 PM 71.6 °F - 50.0 °F 46% 29.95 in - SW 11.5 mph - N/A   Clear
4:50 PM 66.2 °F - 51.8 °F 60% 29.95 in - SW 15.0 mph - N/A   Clear
5:50 PM 62.6 °F - 55.4 °F 77% 29.98 in - SW 16.1 mph - N/A   Clear
6:50 PM 60.8 °F - 57.2 °F 88% 29.98 in 5.6 mi SW 12.7 mph - N/A   Unknown
7:35 PM 60.8 °F - 57.2 °F 88% 30.01 in 3.1 mi SW 12.7 mph - N/A   Mist
7:50 PM 60.8 °F - 57.2 °F 88% 30.01 in 3.1 mi SW 12.7 mph - N/A   Mist
8:50 PM 59.0 °F - 53.6 °F 82% 30.01 in 3.1 mi WSW 4.6 mph - N/A   Mist
9:50 PM 53.6 °F - 50.0 °F 88% 30.04 in 3.1 mi NW 3.5 mph - N/A   Mist
10:50 PM 51.8 °F - 48.2 °F 88% 30.04 in 3.1 mi Variable 2.3 mph - N/A   Mist
11:50 PM 48.2 °F - 44.6 °F 87% 30.04 in 3.1 mi SE 4.6 mph - N/A   Mist